Lapse_Rate
6.3 6.3 6.4 6.4 6.6 6.7 6.7 6.8 6.8 6.7 6.7 6.7 6.6 6.4 6.4 6.1 6.1 6.0 6.0 5.9 5.9 5.9 5.9 5.8 5.8 5.8 5.7 5.7 5.6 5.5 5.4 5.4 5.4 5.4 5.4 5.5 5.4 5.3 5.4 5.6 5.7 5.8 5.9
6.2 6.3 6.3 6.3 6.5 6.7 6.7 6.8 6.6 6.7 6.7 6.7 6.5 6.5 6.4 6.1 6.1 6.0 6.0 5.9 5.8 5.8 5.8 5.8 5.7 5.7 5.7 5.7 5.7 5.7 5.5 5.5 5.5 5.4 5.3 5.5 5.7 5.7 5.6 5.8 5.9 5.9 5.9
6.3 6.3 6.2 6.4 6.3 6.5 6.7 6.7 6.6 6.6 6.7 6.7 6.5 6.5 6.4 6.3 6.2 6.1 6.1 6.1 5.9 5.9 5.9 5.9 5.8 5.8 5.7 5.8 5.8 5.7 5.6 5.7 5.6 5.4 5.5 5.7 5.7 5.7 5.8 5.7 5.7 5.9 5.9
6.4 6.5 6.3 6.4 6.4 6.5 6.6 6.6 6.6 6.7 6.7 6.7 6.6 6.6 6.5 6.4 6.3 6.2 6.1 6.1 5.9 5.9 5.8 5.9 5.8 5.8 5.7 5.8 5.8 5.7 5.7 5.7 5.6 5.6 5.7 5.7 5.9 5.8 5.8 5.9 5.9 5.8 5.8
6.4 6.5 6.4 6.6 6.6 6.6 6.6 6.6 6.6 6.6 6.7 6.7 6.6 6.6 6.6 6.5 6.5 6.4 6.2 6.1 5.9 5.8 5.8 5.8 5.9 5.8 5.8 5.8 5.7 5.7 5.7 5.6 5.6 5.9 6.0 6.0 6.1 6.0 5.9 5.8 5.8 5.9 5.8
6.5 6.6 6.6 6.7 6.7 6.7 6.6 6.5 6.5 6.5 6.6 6.6 6.5 6.6 6.6 6.6 6.4 6.4 6.2 6.1 6.0 6.0 6.0 5.9 5.9 5.9 5.9 5.9 5.8 5.7 5.7 5.7 5.7 5.7 5.8 5.9 6.0 6.0 5.9 5.9 5.9 5.8 5.9
6.6 6.8 6.7 6.7 6.8 6.8 6.7 6.7 6.5 6.5 6.5 6.6 6.6 6.6 6.6 6.5 6.4 6.3 6.3 6.2 6.1 6.1 6.0 5.9 5.9 6.0 5.8 5.8 5.8 5.7 5.7 5.7 5.7 5.7 5.6 5.7 5.9 5.9 5.9 5.9 6.0 6.0 5.9
6.9 6.9 6.8 6.7 6.8 6.8 6.7 6.7 6.7 6.6 6.6 6.6 6.6 6.6 6.5 6.5 6.5 6.3 6.3 6.3 6.3 6.1 6.0 6.0 5.9 5.9 5.8 5.8 5.6 5.7 5.7 5.6 5.6 5.6 5.5 5.5 5.6 5.6 5.8 5.9 5.9 6.0 6.0
6.9 6.7 7.0 6.8 6.7 6.8 6.7 6.6 6.6 6.7 6.6 6.6 6.5 6.5 6.6 6.5 6.5 6.4 6.3 6.2 6.2 6.2 6.0 6.0 6.0 6.0 5.9 5.9 5.7 5.6 5.6 5.6 5.4 5.5 5.5 5.6 5.5 5.5 5.5 5.7 5.8 6.0 6.0
7.0 6.8 6.7 6.8 6.9 7.0 6.7 6.5 6.5 6.6 6.5 6.5 6.4 6.6 6.7 6.6 6.3 6.3 6.3 6.3 6.3 6.2 6.0 5.8 5.7 5.8 5.8 5.8 5.9 5.7 5.4 5.3 5.6 5.5 5.5 5.5 5.5 5.5 5.5 5.5 5.5 5.7 5.9
6.6 6.7 6.5 6.8 6.9 7.0 6.8 6.6 6.4 6.4 6.2 6.0 6.2 6.4 6.4 6.5 6.4 6.6 6.5 6.3 6.1 6.0 5.9 5.8 5.6 5.6 5.6 5.6 5.5 5.7 5.6 5.4 5.3 5.4 5.5 5.6 5.4 5.3 5.4 5.4 5.5 5.5 5.4
7.0 6.8 6.3 6.7 6.9 6.9 6.8 6.5 6.4 6.4 6.1 6.1 6.0 6.0 6.3 6.6 6.5 6.3 6.2 6.0 5.9 5.9 5.9 5.8 5.7 5.7 5.7 5.5 5.5 5.6 5.4 5.1 5.1 5.1 5.2 5.5 5.3 5.2 5.1 5.2 5.3 5.3 5.4
7.3 6.9 6.6 6.9 6.9 6.9 6.8 6.5 6.4 6.2 6.3 6.1 6.2 6.4 6.0 6.0 6.0 5.9 5.8 5.8 5.9 6.0 5.9 5.9 5.9 5.8 5.8 5.6 5.5 5.5 5.3 4.9 5.0 5.2 5.4 5.4 5.2 4.9 4.8 4.9 5.2 5.3 5.3
6.6 7.2 6.8 6.9 7.0 7.0 6.9 6.8 6.6 6.7 6.7 6.6 6.4 6.2 6.2 6.1 5.9 6.0 6.1 6.2 6.1 5.9 6.0 5.9 5.9 5.7 5.8 5.6 5.5 5.3 4.9 4.9 5.0 5.0 5.1 5.2 5.2 5.1 5.0 5.0 5.1 5.2 5.3
7.0 6.7 6.7 7.0 7.2 7.3 7.1 6.9 6.9 7.0 6.6 6.4 6.2 6.1 6.1 6.2 6.2 6.4 6.0 6.1 6.0 5.9 6.0 5.8 5.8 5.8 5.7 5.7 5.6 5.4 5.1 5.1 5.1 5.2 5.1 5.1 4.8 5.1 4.9 5.2 5.2 5.3 5.4
6.8 6.9 6.8 7.1 7.3 7.2 7.3 7.2 7.2 6.8 6.5 6.0 6.1 6.2 6.3 6.6 6.5 6.2 6.2 6.2 6.0 5.9 6.0 5.9 5.7 5.8 5.8 5.8 5.7 5.7 5.5 5.4 5.1 5.4 5.3 4.8 5.0 5.2 5.0 5.2 5.2 5.4 5.5
6.9 7.1 6.7 6.9 7.2 7.3 7.4 7.4 7.3 6.9 6.5 6.2 6.3 6.5 6.6 6.4 6.3 6.3 6.3 6.4 6.2 5.9 5.9 5.9 5.6 5.6 5.5 5.5 5.4 5.4 5.2 5.0 5.4 5.4 5.4 5.0 5.0 5.2 5.2 5.2 5.2 5.4 5.4
7.1 7.0 6.6 6.7 7.1 7.3 7.5 7.4 7.5 7.0 6.5 6.3 6.3 6.3 6.5 6.3 6.3 6.4 6.5 6.5 6.4 6.2 6.1 5.9 5.7 5.6 5.6 5.6 5.4 5.2 5.3 5.4 5.3 5.4 5.6 5.7 5.8 5.7 5.7 5.3 4.9 5.3 5.6
7.2 7.2 6.7 6.8 6.9 7.3 7.6 7.5 7.4 7.0 6.7 6.4 6.4 6.2 6.4 6.4 6.3 6.3 6.5 6.4 6.5 6.4 6.3 5.9 5.8 5.6 5.6 5.6 5.5 5.5 5.3 5.2 5.3 5.1 5.3 5.3 5.7 5.7 5.6 5.1 5.1 5.1 5.3
7.0 7.0 7.0 7.1 6.9 7.1 7.6 7.5 7.1 6.8 6.7 6.5 6.2 6.3 6.4 6.3 6.4 6.4 6.4 6.4 6.4 6.5 6.4 6.2 5.7 5.8 5.6 5.5 5.5 5.4 5.1 5.1 5.1 5.2 5.3 5.6 5.7 5.8 5.7 5.4 5.3 5.4 5.3
6.8 6.6 6.6 6.9 7.0 7.0 7.3 7.3 7.0 6.8 6.6 6.5 6.4 6.3 6.3 6.3 6.3 6.4 6.4 6.3 6.3 6.4 6.4 6.3 6.1 5.8 5.8 5.7 5.6 5.5 5.5 5.4 5.3 5.2 5.3 5.6 5.6 5.5 5.4 5.2 5.1 4.8 4.9
6.7 6.5 6.6 6.6 6.9 6.9 7.2 7.4 6.8 7.2 6.8 6.8 6.8 6.5 6.4 6.3 6.3 6.3 6.3 6.3 6.3 6.4 6.5 6.4 6.2 6.0 5.9 5.9 5.7 5.6 5.6 5.6 5.5 5.5 5.5 5.5 5.6 5.7 5.8 5.9 5.8 5.3 4.7
6.6 6.6 6.3 6.3 6.9 6.9 6.8 6.8 6.7 6.7 6.7 6.6 6.6 6.4 6.4 6.3 6.3 6.3 6.3 6.2 6.1 6.2 6.2 6.1 6.1 6.1 5.9 5.9 5.8 5.7 5.7 5.8 5.6 5.5 5.6 5.6 5.6 5.6 5.6 5.7 5.7 5.6 5.4
6.3 6.5 6.6 6.8 7.0 6.8 6.7 6.9 7.0 6.7 6.6 6.6 6.9 6.9 6.6 6.5 6.3 6.3 6.2 6.2 6.1 6.0 6.1 6.1 6.0 6.0 6.0 5.9 5.8 5.7 5.7 5.6 5.7 5.7 5.7 5.6 5.5 5.5 5.5 5.5 5.6 5.6 5.5
6.4 6.5 6.7 7.0 7.3 6.8 6.7 6.9 6.9 6.7 6.7 6.9 6.8 6.7 6.7 6.6 6.5 6.4 6.3 6.2 6.2 6.2 6.1 6.2 6.1 6.1 6.0 5.9 5.9 5.8 5.8 5.9 5.9 5.9 5.7 5.7 5.5 5.4 5.4 5.4 5.4 5.5 5.5
6.2 6.5 6.9 7.1 7.2 7.0 6.8 6.7 6.9 6.8 6.6 6.6 6.8 6.8 6.8 6.7 6.6 6.6 6.5 6.4 6.3 6.2 6.3 6.1 6.0 6.0 6.1 5.9 5.8 5.8 5.9 5.8 5.7 5.6 5.6 5.6 5.7 5.7 5.6 5.6 5.6 5.6 5.6
Wind_Speed
14 22 19 21 19 17 19 20 19 17 18 18 18 17 17 16 16 16 16 16 16 18 21 22 22 23 22 21 22 23 23 24 24 23 23 22 22 21 19 20 22 22 22
18 25 19 22 20 18 19 20 19 18 17 18 18 18 18 17 16 16 17 17 18 20 21 22 22 23 23 23 23 23 23 23 24 26 26 25 21 21 21 22 22 21 23
20 26 25 23 20 18 20 20 20 18 19 18 17 17 18 17 16 15 16 18 19 21 21 22 23 23 23 22 22 22 20 17 17 17 21 20 20 20 21 20 21 22 24
19 25 26 23 22 19 20 20 18 17 18 19 17 17 17 17 16 17 16 18 20 22 23 23 24 22 21 21 20 19 15 13 13 14 17 17 18 18 20 21 20 22 22
20 25 23 23 22 20 19 18 17 19 17 18 17 17 17 17 18 18 19 21 20 21 23 23 22 21 21 20 19 15 12 9 10 16 15 15 16 16 18 20 20 20 21
19 24 28 24 23 23 20 18 18 19 19 18 17 18 19 19 20 21 22 24 22 22 23 23 21 21 20 20 17 13 8 3 13 19 17 18 17 16 18 19 20 19 19
18 21 26 24 22 24 22 20 19 19 19 18 18 19 21 21 22 23 25 24 24 24 24 23 23 22 21 19 14 12 9 10 14 19 19 17 16 17 17 18 19 18 18
16 16 24 23 21 23 23 21 20 19 18 18 19 21 22 23 25 25 25 25 25 24 24 24 24 23 22 19 18 19 17 12 16 19 15 16 18 17 17 17 19 19 20
13 11 20 24 22 22 21 21 20 20 19 20 20 22 26 28 29 28 25 24 24 25 24 24 23 22 21 20 20 25 24 17 19 15 13 13 17 18 16 16 18 18 20
10 12 16 21 24 23 20 24 22 22 21 20 20 22 26 26 25 26 29 28 26 26 26 24 23 23 23 22 22 24 23 22 16 15 12 13 16 16 17 15 18 18 19
9 13 14 15 22 22 21 21 25 24 23 25 26 30 28 23 25 24 25 26 27 27 25 24 24 24 24 24 22 19 20 17 19 18 13 14 16 16 17 15 18 19 20
13 14 15 16 16 20 17 23 23 23 22 19 22 23 20 19 19 24 26 26 24 23 22 21 18 20 20 17 18 19 14 17 15 16 19 13 14 14 16 16 18 19 20
20 15 16 17 18 18 14 18 16 17 17 19 16 16 21 22 21 21 20 18 16 17 16 16 14 13 13 14 15 16 14 15 13 12 23 22 10 11 14 16 18 18 20
21 19 19 18 15 15 17 13 17 13 16 13 17 20 18 15 16 15 12 15 15 13 14 13 14 15 16 16 16 15 13 13 13 13 21 28 17 7 8 13 17 19 21
20 19 18 17 14 13 12 13 13 12 14 16 17 18 17 15 11 13 12 12 14 14 14 15 15 14 15 16 16 16 16 16 14 12 13 27 24 16 5 9 14 18 21
19 18 18 16 15 12 12 13 10 15 16 16 18 18 17 15 15 13 12 11 13 13 15 16 14 12 13 15 18 16 17 15 15 14 16 16 22 23 5 12 16 18 19
17 19 19 18 17 14 15 11 12 15 17 13 13 17 15 16 18 16 12 12 13 14 18 17 15 15 12 17 16 16 15 17 16 17 17 16 17 19 10 13 18 19 21
18 21 16 15 19 15 15 10 12 17 15 13 12 15 18 18 21 16 12 12 15 15 15 14 12 8 8 8 8 11 13 16 16 18 17 18 17 17 24 21 18 23 27
17 17 17 17 19 17 15 12 13 17 14 13 14 14 18 19 18 16 13 15 17 15 13 12 9 9 9 9 9 9 12 12 15 14 18 19 19 21 22 28 33 28 30
19 15 19 15 17 17 12 11 8 9 10 13 14 14 19 18 18 16 15 17 17 12 9 9 10 9 9 9 10 8 8 11 14 15 15 16 20 23 24 24 24 27 28
18 20 15 16 17 14 12 11 9 9 8 8 11 18 18 18 18 16 14 15 14 9 10 10 10 12 9 10 7 6 6 9 10 12 14 14 17 19 21 21 19 17 21
17 16 16 16 17 14 13 11 7 9 6 7 10 12 16 19 18 17 16 13 14 9 11 10 11 9 8 7 5 4 3 2 5 6 11 11 13 14 17 18 18 19 18
20 15 15 16 16 14 14 10 7 7 5 4 7 7 10 19 18 17 18 15 14 13 9 11 10 13 6 3 6 1 3 3 3 2 6 7 10 11 12 14 17 18 17
16 15 16 16 18 14 15 15 20 12 11 6 8 8 7 18 18 17 18 16 15 13 10 10 13 7 8 6 3 1 2 5 3 3 2 4 7 7 10 11 13 15 16
16 14 16 17 16 15 16 16 15 14 10 8 6 10 8 11 17 16 17 16 14 12 13 11 11 8 7 6 3 3 3 2 4 3 3 4 4 5 8 9 10 10 13
13 14 15 17 13 14 15 15 17 19 14 12 9 9 8 7 8 15 16 15 15 13 12 12 12 9 8 6 5 4 5 3 5 3 3 5 6 3 5 7 8 9 10
Wind_Direction
151 151 161 152 152 143 140 142 141 140 140 133 129 123 120 122 116 112 113 113 114 116 115 112 110 103 100 95 91 87 85 86 87 84 73 76 74 73 74 87 88 84 83
154 152 161 153 152 147 143 141 139 142 142 134 134 131 125 128 121 120 120 117 116 116 117 113 111 107 102 100 94 92 92 93 96 95 88 79 76 77 78 76 84 85 82
156 154 158 152 151 149 146 140 142 148 138 137 139 135 132 130 124 122 121 120 117 113 114 113 108 103 101 101 98 99 101 106 114 108 92 84 80 81 87 83 83 86 86
155 154 160 154 151 152 147 147 151 148 141 139 141 138 135 129 126 122 119 116 113 110 110 109 104 103 100 97 99 102 101 102 111 90 80 86 86 78 90 86 86 88 88
156 156 153 155 152 151 147 152 154 145 136 135 141 140 137 133 127 127 122 111 106 105 105 102 101 99 96 95 97 98 100 109 112 95 111 91 88 84 84 89 89 88 90
161 156 145 156 154 151 155 160 153 140 137 136 141 142 137 132 126 123 116 109 107 105 104 103 99 97 96 93 94 97 99 95 81 81 90 82 88 93 84 84 87 91 99
165 137 154 158 157 155 158 155 143 141 141 141 143 141 136 129 121 117 109 109 108 105 103 103 99 94 93 88 74 56 47 60 81 87 89 91 92 93 96 88 87 89 95
148 143 154 158 157 155 157 148 142 142 140 141 142 141 138 128 122 118 113 109 106 105 105 103 97 94 90 89 65 54 54 75 82 84 87 92 95 92 95 89 90 90 96
150 163 154 164 159 155 146 140 139 136 136 137 136 143 144 133 127 120 113 109 105 103 102 101 102 99 94 84 72 66 56 70 83 86 94 99 97 98 98 96 93 90 95
154 166 157 161 164 165 155 141 135 129 128 127 126 124 120 121 120 117 116 107 105 100 99 101 100 96 88 79 62 64 60 44 60 88 87 97 95 96 103 97 97 94 99
167 168 165 161 167 164 159 140 129 122 119 124 127 128 127 129 126 118 109 101 97 99 98 97 96 92 85 77 69 62 67 56 52 44 50 94 95 96 105 97 97 94 100
175 173 176 169 166 156 151 155 149 142 143 135 134 145 128 112 104 103 97 98 100 104 102 97 97 101 89 73 67 55 55 76 60 48 24 55 91 98 103 101 98 97 97
180 174 180 169 170 156 156 159 151 152 143 140 120 109 112 111 109 108 106 108 114 116 114 114 87 78 89 86 78 62 50 55 58 57 29 41 67 104 109 112 108 107 100
181 178 178 167 167 163 160 157 155 147 143 131 121 126 128 126 123 118 122 129 131 129 126 109 96 96 88 83 83 81 60 70 56 49 34 41 44 47 107 118 118 115 106
180 173 180 167 152 161 149 153 146 140 137 133 136 141 142 136 128 118 126 140 123 132 123 114 106 99 91 86 78 68 52 56 52 44 40 42 40 36 86 121 124 118 113
176 170 174 161 155 153 149 144 141 140 137 145 149 161 159 147 135 133 142 136 135 131 121 115 109 98 97 90 77 70 72 60 58 40 41 36 35 30 19 150 132 119 113
181 174 175 166 155 156 145 140 141 140 145 142 157 148 149 149 143 141 143 140 133 124 118 118 115 108 100 91 83 71 62 60 54 42 38 37 24 19 25 140 115 115 111
190 178 175 168 163 152 147 141 141 139 140 142 148 148 161 152 151 146 145 132 131 133 130 126 121 109 98 95 81 66 60 52 52 47 40 37 33 29 46 87 99 104 106
189 179 172 165 159 150 144 138 139 135 140 141 155 160 160 152 153 147 142 135 145 141 141 135 128 124 118 100 86 67 52 45 52 46 42 32 24 37 46 48 67 92 94
191 172 170 166 160 148 140 134 129 129 136 139 156 163 155 151 160 150 144 150 150 145 139 137 131 123 113 109 94 73 58 49 54 46 40 36 29 29 41 44 52 56 73
184 185 171 170 161 150 147 144 145 149 151 145 159 164 156 157 164 154 150 154 155 147 146 142 133 128 123 129 109 86 69 54 47 47 43 40 36 37 36 44 47 56 58
184 176 172 168 160 169 159 155 159 150 154 146 145 158 161 166 165 160 159 159 157 150 148 145 145 137 135 178 132 126 119 83 44 38 46 47 44 45 43 37 40 48 63
184 177 180 168 165 169 163 127 113 102 89 119 146 158 177 170 169 167 164 162 159 153 155 155 157 151 149 175 180 85 155 146 133 6 60 56 49 53 46 41 39 43 56
186 172 174 163 169 166 159 150 158 165 161 172 173 170 171 171 174 172 168 166 160 158 160 165 164 170 155 156 113 360 330 115 153 139 85 84 69 57 52 49 47 46 44
183 172 172 169 168 164 174 176 167 169 167 151 155 158 165 171 175 176 174 170 166 167 167 171 170 164 171 152 146 154 92 21 104 138 143 147 102 86 70 61 62 53 52
179 183 171 168 165 167 175 182 173 177 162 157 154 162 168 168 175 181 180 175 176 173 171 171 174 169 177 161 146 172 156 162 171 134 115 146 126 103 108 94 75 66 68